TimePST,TemperatureF,Dew PointF,Humidity,Sea Level PressureIn,VisibilityMPH,Wind Direction,Wind SpeedMPH,Gust SpeedMPH,PrecipitationIn,Events,Conditions,WindDirDegrees,DateUTC
12:55 AM,41.0,28.9,62,30.10,10.0,WNW,5.8,-,N/A,,Clear,300,2013-01-03 08:55:00
1:55 AM,53.1,18.0,25,30.09,10.0,NNE,6.9,-,N/A,,Clear,30,2013-01-03 09:55:00
2:55 AM,51.1,19.0,28,30.09,10.0,NE,6.9,-,N/A,,Clear,40,2013-01-03 10:55:00
3:55 AM,57.0,17.1,21,30.09,10.0,NE,10.4,-,N/A,,Clear,40,2013-01-03 11:55:00
4:55 AM,59.0,15.1,18,30.09,10.0,ENE,13.8,-,N/A,,Clear,60,2013-01-03 12:55:00
5:55 AM,57.9,16.0,19,30.11,10.0,NE,13.8,20.7,N/A,,Clear,50,2013-01-03 13:55:00
6:55 AM,59.0,14.0,17,30.14,10.0,ENE,16.1,-,N/A,,Clear,70,2013-01-03 14:55:00
7:55 AM,57.9,18.0,21,30.15,10.0,East,11.5,-,N/A,,Clear,80,2013-01-03 15:55:00
8:55 AM,63.0,14.0,15,30.16,10.0,ENE,29.9,36.8,N/A,,Clear,70,2013-01-03 16:55:00
9:55 AM,66.0,14.0,13,30.16,10.0,ENE,29.9,41.4,N/A,,Clear,60,2013-01-03 17:55:00
10:55 AM,68.0,14.0,12,30.16,10.0,ENE,25.3,38.0,N/A,,Clear,70,2013-01-03 18:55:00
11:55 AM,69.1,14.0,12,30.14,10.0,ENE,28.8,34.5,N/A,,Clear,70,2013-01-03 19:55:00
12:55 PM,70.0,12.9,11,30.13,10.0,East,26.5,34.5,N/A,,Clear,80,2013-01-03 20:55:00
1:55 PM,70.0,10.9,10,30.12,10.0,ENE,23.0,34.5,N/A,,Clear,70,2013-01-03 21:55:00
2:55 PM,70.0,12.0,11,30.12,10.0,NE,23.0,28.8,N/A,,Clear,50,2013-01-03 22:55:00
3:55 PM,69.1,10.9,11,30.14,10.0,NE,15.0,24.2,N/A,,Clear,50,2013-01-03 23:55:00
4:55 PM,60.1,30.0,32,30.14,10.0,WNW,4.6,-,N/A,,Clear,300,2013-01-04 00:55:00
5:55 PM,59.0,32.0,36,30.17,10.0,Calm,Calm,-,N/A,,Clear,0,2013-01-04 01:55:00
6:55 PM,52.0,30.9,45,30.18,10.0,West,4.6,-,N/A,,Clear,260,2013-01-04 02:55:00
7:55 PM,48.0,32.0,54,30.19,10.0,NNE,5.8,-,N/A,,Clear,30,2013-01-04 03:55:00
8:55 PM,44.1,32.0,63,30.20,10.0,Calm,Calm,-,N/A,,Clear,0,2013-01-04 04:55:00
9:55 PM,43.0,30.9,62,30.20,10.0,Calm,Calm,-,N/A,,Clear,0,2013-01-04 05:55:00
10:55 PM,44.1,26.1,49,30.20,10.0,Calm,Calm,-,N/A,,Clear,0,2013-01-04 06:55:00
11:55 PM,52.0,17.1,25,30.19,10.0,NE,9.2,-,N/A,,Clear,50,2013-01-04 07:55:00